Location: Cabri�res
(43.7840°N, 5.4986°E)
Time: 12:53:01
(UTC+00:00)

ATLAS CENTAUR R/B - Pass Details

Date: 09 April 2020
Orbit: 466 x 681 km, 64.7° (Epoch: 20 May)

Event Time Altitude Azimuth Distance (km) Brightness Sun altitude
Rises 20:16:44 0° 336° (NNW) 2,676 5.8 -20.9°
Reaches altitude 10° 20:19:42 10° 359° (N) 1,738 4.3 -21.4°
Maximum altitude 20:22:07 16° 38° (NE) 1,376 3.3 -21.7°
Enters shadow 20:22:08 16° 38° (NE) 1,376 3.3 -21.7°
